Tracking 20942 objects as of 9-Jul-2020
HD Live streaming from Space Station
objects crossing your sky now

FENGYUN 1C DEB

Track FENGYUN 1C DEB now!
10-day predictions


NORAD ID: 41828
Int'l Code: 1999-025EYF
Perigee: 804.8 km
Apogee: 904.4 km
Inclination: 99.0 °
Period: 101.9 minutes
Semi major axis: 7225 km
RCS: Unknown
Launch date: May 10, 1999
Source: People's Republic of China (PRC)
Launch site: Taiyaun Space Center, China (TSC)

Note: This is SATELLITE DEBRIS
aabbcc
Your satellite tracking list
Your tracking list is empty




NASA's NSSDC Master Catalog

Two Line Element Set (TLE):
1 41828U 99025EYF 20191.13779880  .00000690  00000-0  38155-3 0  9994
2 41828  98.9528 260.7365 0068943 120.9166 239.8808 14.13482451192519
Source of the keplerian elements: AFSPC